www.pogodaiklimat.ru

Погода и климат >> Архив погоды >> Мексика >> Эрмосильо


ПОГОДА в Эрмосильо

  • Прогноз погоды в Эрмосильо
  • Монитор погоды в Эрмосильо

АРХИВ ПОГОДЫ в Эрмосильо

Время (UTC), дата Ветер
(напр.,м/с)
 
Видим.   Явления Облачность Т
(С)
Тd
(С)
f
(%)
Тe
(С)
Тes
(С)
Комфортность P
(гПа)
Po
(гПа)
Тmin
(С)
Tmax
(С)
R
(мм)
R24
(мм)
S
(см)
06 13.09 З 2 8000 м ясно +29.8 +21.7 62 +38 +38 очень
душно
1009.9 986.5 +24.0 +39.0
15 13.09 СВ 1 12 км 1/1 900 м
[Sc diur, vesp]
+27.6 +23.2 77 +37 +40 очень
душно
1011.4 987.7
18 13.09 СВ 2 12 км 3/3 900 м
[Sc diur, vesp]
+34.0 +23.8 55 +45 +56 опасность
перегрева
1011.4 987.7 +23.5 +34.0
21 13.09 ЮЗ 1 12 км 8/5 900 м
[Sc Ci fib]
+37.2 +22.2 42 +46 +53 опасность
перегрева
1008.1 984.8
00 14.09 З 1 12 км 6/4 900 м
[Sc Ci fib]
+38.4 +19.3 33 +43 +45 опасность
перегрева
1006.2 983.1 +23.5 +40.5
03 14.09 В 5 8000 м гроза без осадков {метель} 10/10 900 м
[Frnb]
+29.2 +20.4 59 +36 +36 очень
душно
1012.2 988.9
18 14.09 ЮВ 1 12 км 1/1 900 м
[Sc]
+33.4 +20.4 47 +40 +56 опасность
солнечного
удара
1012.3 988.7 +24.5 +33.4
15 16.09 СВ 2 12 км 1/1 900 м
[Sc diur, vesp]
+28.4 +23.8 76 +39 +42 очень
душно
1012.8 988.9
18 16.09 В 1 12 км 4/4 900 м
[Cu hum]
+34.6 +24.5 56 +47 +58 опасность
перегрева
1012.1 988.4 +26.0 +34.6
00 17.09 В 1 12 км 4/4 900 м
[Sc]
+38.4 +20.7 36 +45 +46 опасность
перегрева
1007.3 984.0 +26.0 +39.5
03 17.09 Ю 1 8000 м зарница {дождь, метель} 9/9 900 м
[Sc diur, vesp]
+24.2 +20.4 79 +30 +30 очень
душно
1010.7 987.1 13
06 17.09 В 1 8000 м 4/0
[Ac lent]
+24.4 +21.0 81 +31 +31 очень
душно
1011.6 987.9 +39.5
15 17.09 СВ 3 12 км 1/1 900 м
[Sc diur, vesp]
+25.8 +21.0 75 +32 +35 очень
душно
1012.9 988.7
18 17.09 СВ 2 12 км 1/1 900 м
[Sc diur, vesp]
+32.6 +22.2 54 +41 +55 опасность
перегрева
1012.2 988.3 +23.0 +32.6
21 17.09 ЮВ 1 12 км 1/1 900 м
[Sc]
+36.6 +20.4 39 +43 +58 опасность
перегрева
1008.9 985.7
00 18.09 С 1 12 км 1/1 900 м
[Sc]
+37.6 +19.3 34 +42 +44 опасность
перегрева
1007.4 984.1 +23.0 +38.5
03 18.09 З 2 8000 м ясно +32.2 +22.6 57 +42 +42 опасность
перегрева
1008.5 985.1
15 18.09 СВ 3 12 км ясно +27.4 +22.7 76 +36 +39 очень
душно
1011.3 987.5
18 18.09 В 2 12 км 1/1 900 м
[Sc diur, vesp]
+36.2 +22.3 45 +45 +58 опасность
перегрева
1011.3 987.6 +25.0 +36.2
21 18.09 ЮЗ 1 12 км 1/1 900 м
[Sc]
+37.8 +18.4 32 +42 +56 опасность
перегрева
1008.4 985.1
00 19.09 З 1 12 км 3/3 900 м
[Sc]
+39.0 +19.0 31 +43 +45 опасность
перегрева
1006.3 983.3 +25.0 +39.5
03 19.09 З 4 8000 м ясно +32.8 +21.4 51 +41 +41 опасность
перегрева
1008.2 985.0
06 19.09 З 1 8000 м ясно +29.8 +23.8 70 +41 +41 опасность
перегрева
1009.3 986.0 +25.0 +39.5
15 19.09 СВ 3 12 км ясно +27.2 +22.8 77 +36 +38 очень
душно
1009.3 985.7
18 19.09 ЮВ 2 12 км 1/1 900 м
[Sc diur, vesp]
+34.2 +24.6 57 +47 +60 опасность
перегрева
1009.1 985.5 +26.0 +34.2
21 19.09 ЮВ 1 12 км 1/1 900 м
[Sc]
+37.6 +18.9 34 +42 +57 опасность
перегрева
1006.2 983.0
00 20.09 Ю 1 12 км 1/1 900 м
[Sc]
+38.6 +17.6 29 +41 +44 опасность
перегрева
1004.4 981.3 +26.0 +39.5
03 20.09 З 3 12 км ясно +33.2 +20.3 47 +40 +40 очень
душно
1005.4 982.2

 

Местоположение метеостанции Эрмосильо (Мексика): широта 29.09 долгота -111.05 высота над уровнем моря 191 м.

В архиве по умолчанию представлена погода в Эрмосильо за последнюю неделю. Архивные данные за месяц целиком и за предыдущие месяцы, начиная с января 2011 года, Вы можете получить, выбрав интересующий диапазон дат из раскрывающегося списка и нажав кнопку "Ввод!".


*Определитесь, кто Вы:
робот инопланетянин человек

Внимание! Время в таблицах - всемирное. Для получения местного времени необходимо прибавить поправку, которая равна -7 ч.

Смотрите также архив погоды в соседних городах и на ближайших метеорологических станциях:

Погода в Эрмосильо Магна (Мексика) (10 км)
Погода в Гуаймасе (Мексика) (131 км)
Погода в Эмпальме (Мексика) (131 км)
Погода в Накосари де Гарсия (Мексика) (194 км)
Погода в Альтаре (Мексика) (196 км)
Погода в Сьюдад-Обрегоне (Мексика) (224 км)
Погода в Санта-Розалии (Мексика) (233 км)
Погода в Темосачи (Мексика) (316 км)
Погода в Нуэво-Касас-Грандесе (Мексика) (336 км)
Погода в Лорето (Мексика) (342 км)

Пояснения к столбцам:

Ветер - указаны скорость ветра в м/с - средняя за 10 мин, порывы в срок и между сроками (в фигурных скобках) и направление, откуда дует ветер: С - северный, СВ - северо-восточный, В - восточный, ЮВ - юго-восточный, Ю - южный, ЮЗ - юго-западный, З - западный, СЗ - северо-западный.
Видимость - горизонтальная дальность видимости в метрах или километрах. При видимости от 1 до 10 км при отсутствии осадков обычно наблюдается дымка, при ухудшении видимости до 1 км и менее - туман. В сухую погоду видимость может ухудшаться дымом, пылью или мглою.
Явления - указаны атмосферные явления, наблюдавшиеся в срок или в последний час перед сроком; фигурными скобками обозначены явления, наблюдавшиеся между сроками (за 1-3 часа до срока); квадратными скобками обозначены град или гололедные отложения с указанием их диаметра в мм.
Облачность - указаны через наклонную черту общая и нижняя облачность в баллах и высота нижней границы облаков в метрах; квадратными скобками обозначены формы облаков: Ci - перистые, Cs - перисто-слоистые, Cc - перисто-кучевые, Ac - высококучевые, As - высокослоистые, Sc - слоисто-кучевые, Ns - слоисто-дождевые, Cu - кучевые, Cb - кучево-дождевые. Подробнее классификацию облаков см. в Атласе облаков (PDF).
T - Температура воздуха - температура, измеренная на высоте 2 м над землей.
Td - Температура точки росы - температура, при понижении до которой содержащийся в воздухе водяной пар достигнет насыщения.
f - Относительная влажность воздуха - влажноcть воздуха, измеренная на высоте 2 м над землей.
Te - Эффективная температура - температура, которую ощущает одетый по сезону человек в тени. Характеристика душности погоды. При расчете учитывается влияние влажности воздуха и скорости ветра на теплоощущения человека.
Tes - Эффективная температура на солнце - температура, которую ощущает человек, с поправкой на солнечный нагрев. Характеристика знойности погоды. Зависит от высоты солнца над горизонтом, облачности и скорости ветра. Ночью, в пасмурную погоду, а также при ветре 12 м/с и более поправка равна нулю.
P - Атмосферное давление - приведенное к уровню моря атмосферное давление.
Po - Атмосферное давление - измеренное на уровне метеостанции атмосферное давление.
Tmin - Минимальная температура - минимум температуры воздуха на высоте 2 м над землей.
Tmax - Максимальная температура - максимум температуры воздуха на высоте 2 м над землей.
R - Количество осадков - Количество выпавших осадков за период времени, мм. При наведении курсора мыши на число - период времени, за который выпало указанное количество осадков.
R24 - Количество осадков - Количество выпавших осадков за 24 часа, мм.
S - Снежный покров - Высота снежного покрова, см. При наведении курсора мыши на число - состояние снежного покрова и степень покрытия местности в баллах.